Location: Charbonni�res
(45.9952°N, 2.9982°E)
Time: 18:12:26
(UTC+00:00)

Cosmos 1437 Rocket - Pass Details

Date: 29 November 2020
Orbit: 504 x 563 km, 81.2° (Epoch: 17 January)

Event Time Altitude Azimuth Distance (km) Brightness Sun altitude
Exits shadow 06:11:06 - 343° (NNW) 2,471 5.8 -9.6°
Reaches altitude 10° 06:12:54 10° 338° (NNW) 1,732 5.0 -9.3°
Maximum altitude 06:16:33 47° 264° (W) 677 2.9 -8.7°
Drops below altitude 10° 06:20:10 10° 190° (S) 1,711 5.5 -8.1°
Sets 06:22:19 0° 184° (S) 2,592 6.5 -7.8°
